| time (UTC) | temp F | wind direction | speed MPH | gust MPH | rain 1hr in | rain 24hr in | rain mn in | humidity % | barometer mb |
| 20260506091331 | 61 | 182 | 0.0 | 0.0 | 0.00 | 0.00 | 0.00 | 76 | 996.2 |
| 20260506090831 | 61 | 182 | 0.0 | 0.0 | 0.00 | 0.00 | 0.00 | 76 | 996.3 |
| 20260506090331 | 61 | 182 | 0.0 | 0.0 | 0.00 | 0.00 | 0.00 | 75 | 996.2 |
| 20260506085831 | 61 | 182 | 0.0 | 0.0 | 0.00 | 0.00 | 0.00 | 75 | 996.2 |
| 20260506085329 | 0 | 0.0 | 0.0 | 0.00 | 0.00 | 0.00 | 996.2 | ||
| 20260506084829 | 61 | 182 | 0.0 | 0.0 | 0.00 | 0.00 | 0.00 | 75 | 996.3 |
| 20260506084552 | 61 | 182 | 0.0 | 0.0 | 0.00 | 0.00 | 0.00 | 74 | 996.4 |
| 20260506083828 | 61 | 182 | 0.0 | 0.0 | 0.00 | 0.00 | 0.00 | 74 | 996.4 |
| 20260506083328 | 61 | 182 | 0.0 | 0.0 | 0.00 | 0.00 | 0.00 | 74 | 996.3 |
| 20260506082829 | 61 | 182 | 0.0 | 0.0 | 0.00 | 0.00 | 0.00 | 74 | 996.3 |
| 20260506082328 | 61 | 182 | 0.0 | 0.0 | 0.00 | 0.00 | 0.00 | 74 | 996.2 |
| 20260506081828 | 61 | 182 | 0.0 | 0.0 | 0.00 | 0.00 | 0.00 | 74 | 996.3 |
| 20260506081328 | 61 | 182 | 0.0 | 0.0 | 0.00 | 0.00 | 0.00 | 74 | 996.3 |
| 20260506080828 | 61 | 182 | 0.0 | 0.0 | 0.00 | 0.00 | 0.00 | 74 | 996.2 |
| 20260506080327 | 61 | 182 | 0.0 | 0.0 | 0.00 | 0.00 | 0.00 | 73 | 996.1 |
| 20260506073325 | 61 | 182 | 0.0 | 0.0 | 0.00 | 0.00 | 0.00 | 73 | 996.0 |
| 20260506072825 | 61 | 182 | 0.0 | 0.0 | 0.00 | 0.00 | 0.00 | 73 | 996.0 |
| 20260506072324 | 0 | 0.0 | 0.0 | 0.00 | 0.00 | 0.00 | 995.9 | ||
| 20260506071825 | 61 | 182 | 0.0 | 0.0 | 0.00 | 0.00 | 0.00 | 73 | 995.8 |
| 20260506071546 | 61 | 182 | 0.0 | 0.0 | 0.00 | 0.00 | 0.00 | 73 | 995.8 |
| 20260506070823 | 0 | 182 | 0.0 | 0.0 | 0.00 | 0.00 | 0.00 | 995.8 | |
| 20260506070323 | 61 | 182 | 0.0 | 0.0 | 0.00 | 0.00 | 0.00 | 74 | 995.7 |
| 20260506062323 | 61 | 182 | 0.0 | 0.0 | 0.00 | 0.00 | 0.00 | 75 | 995.5 |
| 20260506061821 | 62 | 182 | 0.0 | 0.0 | 0.00 | 0.00 | 0.00 | 75 | 995.6 |
| 20260506061544 | 62 | 182 | 0.0 | 0.0 | 0.00 | 0.00 | 0.00 | 76 | 995.5 |
| 20260506060822 | 62 | 182 | 0.0 | 0.0 | 0.00 | 0.00 | 0.00 | 76 | 995.6 |
| 20260506060320 | 0 | 182 | 0.0 | 0.0 | 0.00 | 0.00 | 0.00 | 995.5 | |
| 20260506051319 | 62 | 182 | 0.0 | 0.0 | 0.00 | 0.00 | 0.00 | 73 | 994.9 |
| 20260506050818 | 62 | 182 | 0.0 | 0.0 | 0.00 | 0.00 | 0.00 | 73 | 994.9 |
| 20260506050318 | 62 | 182 | 0.0 | 0.0 | 0.00 | 0.00 | 0.00 | 71 | 994.8 |
| 20260506044818 | 62 | 182 | 0.0 | 0.0 | 0.00 | 0.00 | 0.00 | 72 | 994.6 |
| 20260506044318 | 62 | 182 | 0.0 | 0.0 | 0.00 | 0.00 | 0.00 | 71 | 994.7 |
| 20260506043818 | 62 | 182 | 0.0 | 0.0 | 0.00 | 0.00 | 0.00 | 70 | 994.6 |
| 20260506043317 | 62 | 182 | 0.0 | 0.0 | 0.00 | 0.00 | 0.00 | 69 | 994.5 |
| 20260506042817 | 63 | 182 | 0.0 | 0.0 | 0.00 | 0.00 | 0.00 | 69 | 994.5 |
| 20260506042538 | 63 | 182 | 0.0 | 0.0 | 0.00 | 0.00 | 0.00 | 69 | 994.3 |
| 20260506041817 | 63 | 182 | 0.0 | 0.0 | 0.00 | 0.00 | 0.00 | 68 | 994.2 |
| 20260506041317 | 63 | 182 | 0.0 | 0.0 | 0.00 | 0.00 | 0.00 | 68 | 994.2 |
| 20260506040817 | 63 | 182 | 0.0 | 0.0 | 0.00 | 0.00 | 0.00 | 68 | 994.1 |
| 20260506040315 | 63 | 182 | 0.0 | 0.0 | 0.00 | 0.00 | 0.00 | 68 | 994.1 |
| 20260506035815 | 63 | 182 | 0.0 | 0.0 | 0.00 | 0.00 | 0.00 | 68 | 994.0 |
| 20260506035315 | 63 | 182 | 0.0 | 0.0 | 0.00 | 0.00 | 0.00 | 68 | 993.8 |
| 20260506034815 | 63 | 182 | 0.0 | 0.0 | 0.00 | 0.00 | 0.00 | 68 | 993.7 |
| 20260506034316 | 63 | 182 | 0.0 | 0.0 | 0.00 | 0.00 | 0.00 | 68 | 993.6 |
| 20260506033815 | 63 | 182 | 0.0 | 0.0 | 0.00 | 0.00 | 0.00 | 68 | 993.5 |
| 20260506033315 | 63 | 182 | 0.0 | 0.0 | 0.00 | 0.00 | 0.00 | 68 | 993.4 |
| 20260506032815 | 63 | 182 | 0.0 | 0.0 | 0.00 | 0.00 | 0.00 | 67 | 993.3 |
| 20260506032315 | 63 | 182 | 0.0 | 0.0 | 0.00 | 0.00 | 0.00 | 67 | 993.3 |
| 20260506031814 | 63 | 182 | 0.0 | 0.0 | 0.00 | 0.00 | 0.00 | 67 | 993.2 |
| 20260506031314 | 63 | 182 | 0.0 | 0.0 | 0.00 | 0.00 | 0.00 | 67 | 993.1 |
| 20260506031043 | 0 | 182 | 0.0 | 0.0 | 0.00 | 0.00 | 0.00 | 993.1 | |
| 20260506030313 | 63 | 182 | 0.0 | 0.0 | 0.00 | 0.00 | 0.00 | 67 | 992.9 |
| 20260506025814 | 64 | 183 | 0.0 | 0.0 | 0.00 | 0.00 | 0.00 | 67 | 992.8 |
| 20260506025314 | 64 | 166 | 0.0 | 0.0 | 0.00 | 0.00 | 0.00 | 66 | 992.8 |
| 20260506024813 | 64 | 166 | 0.0 | 0.0 | 0.00 | 0.00 | 0.00 | 66 | 992.6 |
| 20260506024313 | 64 | 166 | 0.0 | 0.0 | 0.00 | 0.00 | 0.00 | 66 | 992.6 |
| 20260506023813 | 64 | 166 | 0.0 | 0.0 | 0.00 | 0.00 | 0.00 | 66 | 992.6 |
| 20260506023310 | 0 | 0.0 | 1.0 | 0.00 | 0.00 | 0.00 | 992.5 | ||
| 20260506023039 | 64 | 199 | 0.0 | 6.0 | 0.00 | 0.00 | 0.00 | 65 | 992.3 |
| 20260506022312 | 64 | 196 | 1.0 | 6.0 | 0.00 | 0.00 | 0.00 | 65 | 992.3 |
| 20260506021812 | 64 | 179 | 0.0 | 5.0 | 0.00 | 0.00 | 0.00 | 65 | 992.2 |
| 20260506021311 | 64 | 179 | 0.0 | 5.0 | 0.00 | 0.00 | 0.00 | 65 | 992.2 |
| 20260506020809 | 64 | 175 | 0.0 | 1.0 | 0.00 | 0.00 | 0.00 | 65 | 992.1 |
| 20260506020309 | 64 | 190 | 0.0 | 1.0 | 0.00 | 0.00 | 0.00 | 65 | 992.1 |
| 20260506015808 | 0 | 0.0 | 0.0 | 0.00 | 0.00 | 0.00 | 991.9 | ||
| 20260506015309 | 64 | 144 | 0.0 | 0.0 | 0.00 | 0.00 | 0.00 | 65 | 992.0 |
| 20260506014810 | 64 | 144 | 0.0 | 0.0 | 0.00 | 0.00 | 0.00 | 64 | 992.0 |
| 20260506014530 | 65 | 141 | 0.0 | 3.0 | 0.00 | 0.00 | 0.00 | 64 | 991.9 |
| 20260506013809 | 65 | 141 | 0.0 | 3.0 | 0.00 | 0.00 | 0.00 | 64 | 991.8 |
| 20260506013534 | 65 | 204 | 0.0 | 0.0 | 0.00 | 0.00 | 0.00 | 64 | 991.8 |
| 20260506012807 | 0 | 204 | 0.0 | 0.0 | 0.00 | 0.00 | 0.00 | 991.8 | |
| 20260506012308 | 0 | 0.0 | 0.0 | 0.00 | 0.00 | 0.00 | 991.6 | ||
| 20260506011805 | 0 | 0.0 | 0.0 | 0.00 | 0.00 | 0.00 | 991.6 | ||
| 20260506011304 | 0 | 0.0 | 0.0 | 0.00 | 0.00 | 0.00 | 991.7 | ||
| 20260506010803 | 0 | 154 | 0.0 | 0.0 | 0.00 | 0.00 | 0.00 | 991.6 | |
| 20260506010303 | 65 | 154 | 0.0 | 0.0 | 0.00 | 0.00 | 0.00 | 64 | 991.5 |
| 20260506005805 | 65 | 154 | 0.0 | 0.0 | 0.00 | 0.00 | 0.00 | 64 | 991.6 |
| 20260506005305 | 65 | 154 | 0.0 | 0.0 | 0.00 | 0.00 | 0.00 | 63 | 991.6 |
| 20260506004804 | 65 | 154 | 0.0 | 0.0 | 0.00 | 0.00 | 0.00 | 64 | 991.5 |
| 20260506004304 | 65 | 154 | 0.0 | 0.0 | 0.00 | 0.00 | 0.00 | 63 | 991.4 |
| 20260506004026 | 0 | 0.0 | 0.0 | 0.00 | 0.00 | 0.00 | 991.4 | ||
| 20260506003302 | 65 | 147 | 0.0 | 0.0 | 0.00 | 0.00 | 0.00 | 63 | 991.4 |
| 20260506002803 | 65 | 147 | 0.0 | 0.0 | 0.00 | 0.00 | 0.00 | 64 | 991.3 |
| 20260506002305 | 65 | 154 | 0.0 | 3.0 | 0.00 | 0.00 | 0.00 | 64 | 991.5 |
| 20260506001802 | 65 | 154 | 0.0 | 3.0 | 0.00 | 0.00 | 0.00 | 63 | 991.3 |
| 20260506001304 | 65 | 151 | 0.0 | 0.0 | 0.00 | 0.00 | 0.00 | 63 | 991.3 |
| 20260506001254 | 65 | 145 | 0.0 | 0.0 | 0.00 | 0.00 | 0.00 | 63 | 991.3 |
| 20260506000258 | 0 | 110 | 0.0 | 0.0 | 0.00 | 0.00 | 0.00 | 991.4 | |
| 20260506000024 | 66 | 110 | 0.0 | 0.0 | 0.00 | 0.00 | 0.00 | 63 | 991.4 |
| 20260505235531 | 66 | 186 | 0.0 | 0.0 | 0.00 | 0.00 | 0.00 | 63 | 991.3 |
| 20260505234759 | 66 | 161 | 0.0 | 0.0 | 0.00 | 0.00 | 0.00 | 63 | 991.3 |
| 20260505234300 | 66 | 161 | 0.0 | 0.0 | 0.00 | 0.00 | 0.00 | 64 | 991.2 |
| 20260505233756 | 0 | 0.0 | 0.0 | 0.00 | 0.00 | 0.00 | 991.2 | ||
| 20260505233257 | 0 | 0.0 | 2.0 | 0.00 | 0.00 | 0.00 | 991.2 | ||
| 20260505232755 | 65 | 154 | 0.0 | 4.0 | 0.00 | 0.00 | 0.00 | 63 | 991.3 |
| 20260505232254 | 66 | 157 | 0.0 | 6.0 | 0.00 | 0.00 | 0.00 | 63 | 991.3 |
| 20260505231754 | 66 | 206 | 5.0 | 6.0 | 0.00 | 0.00 | 0.00 | 64 | 991.3 |
| 20260505231256 | 66 | 197 | 0.0 | 0.0 | 0.00 | 0.00 | 0.00 | 63 | 991.5 |
| 20260505230755 | 65 | 138 | 0.0 | 5.0 | 0.00 | 0.00 | 0.00 | 63 | 991.3 |
| 20260505230255 | 65 | 133 | 0.0 | 5.0 | 0.00 | 0.00 | 0.00 | 62 | 991.5 |
| 20260505230017 | 66 | 121 | 1.0 | 4.0 | 0.00 | 0.00 | 0.00 | 62 | 991.5 |
| 20260505225258 | 67 | 195 | 0.0 | 3.0 | 0.00 | 0.00 | 0.00 | 61 | 991.5 |
| 20260505224755 | 67 | 182 | 0.0 | 3.0 | 0.00 | 0.00 | 0.00 | 61 | 991.5 |
| 20260505224254 | 67 | 149 | 0.0 | 6.0 | 0.00 | 0.00 | 0.00 | 61 | 991.6 |
| 20260505223755 | 67 | 213 | 1.0 | 9.0 | 0.00 | 0.00 | 0.00 | 61 | 991.5 |
| 20260505223518 | 67 | 137 | 2.0 | 9.0 | 0.00 | 0.00 | 0.00 | 61 | 991.7 |
| 20260505222754 | 67 | 113 | 0.0 | 0.0 | 0.00 | 0.00 | 0.00 | 62 | 991.7 |
| 20260505222254 | 67 | 137 | 0.0 | 0.0 | 0.00 | 0.00 | 0.00 | 61 | 991.8 |
| 20260505221754 | 67 | 134 | 0.0 | 0.0 | 0.00 | 0.00 | 0.00 | 59 | 991.8 |
| 20260505221254 | 67 | 71 | 0.0 | 0.0 | 0.00 | 0.00 | 0.00 | 59 | 991.8 |
| 20260505220752 | 0 | 0.0 | 0.0 | 0.00 | 0.00 | 0.00 | 991.8 | ||
| 20260505220253 | 67 | 141 | 0.0 | 0.0 | 0.00 | 0.00 | 0.00 | 59 | 991.9 |
| 20260505215806 | 67 | 140 | 0.0 | 0.0 | 0.00 | 0.00 | 0.00 | 61 | 991.8 |
| 20260505215253 | 67 | 137 | 0.0 | 0.0 | 0.00 | 0.00 | 0.00 | 61 | 991.8 |
| 20260505214753 | 68 | 166 | 0.0 | 0.0 | 0.00 | 0.00 | 0.00 | 59 | 991.9 |
| 20260505214253 | 68 | 217 | 0.0 | 0.0 | 0.00 | 0.00 | 0.00 | 56 | 991.9 |
| 20260505213753 | 68 | 162 | 0.0 | 0.0 | 0.00 | 0.00 | 0.00 | 56 | 992.0 |
| 20260505213252 | 68 | 162 | 0.0 | 0.0 | 0.00 | 0.00 | 0.00 | 56 | 992.1 |
| 20260505212752 | 68 | 158 | 0.0 | 0.0 | 0.00 | 0.00 | 0.00 | 57 | 992.0 |
| 20260505212252 | 68 | 10 | 0.0 | 0.0 | 0.00 | 0.00 | 0.00 | 57 | 992.1 |
| 20260505211749 | 0 | 0.0 | 0.0 | 0.00 | 0.00 | 0.00 | 992.1 | ||
| 20260505211514 | 67 | 37 | 0.0 | 0.0 | 0.00 | 0.00 | 0.00 | 57 | 992.1 |
| 20260505210748 | 0 | 0.0 | 0.0 | 0.00 | 0.00 | 0.00 | 992.2 | ||
| 20260505210249 | 66 | 244 | 0.0 | 0.0 | 0.00 | 0.00 | 0.00 | 59 | 992.3 |
| 20260505210232 | 66 | 244 | 0.0 | 0.0 | 0.00 | 0.00 | 0.00 | 60 | 992.3 |
| 20260505205249 | 67 | 168 | 0.0 | 0.0 | 0.00 | 0.00 | 0.00 | 61 | 992.4 |
| 20260505204749 | 66 | 227 | 0.0 | 0.0 | 0.00 | 0.00 | 0.00 | 61 | 992.3 |
| 20260505204249 | 66 | 227 | 0.0 | 0.0 | 0.00 | 0.00 | 0.00 | 62 | 992.4 |
| 20260505204011 | 66 | 227 | 0.0 | 0.0 | 0.00 | 0.00 | 0.00 | 61 | 992.4 |
| 20260505203248 | 65 | 227 | 0.0 | 0.0 | 0.00 | 0.00 | 0.00 | 63 | 992.5 |
| 20260505202749 | 65 | 189 | 0.0 | 0.0 | 0.00 | 0.00 | 0.00 | 63 | 992.5 |
| 20260505202248 | 65 | 149 | 0.0 | 0.0 | 0.00 | 0.00 | 0.00 | 63 | 992.5 |
| 20260505201751 | 65 | 158 | 0.0 | 0.0 | 0.00 | 0.00 | 0.00 | 62 | 992.6 |
| 20260505201735 | 65 | 165 | 0.0 | 0.0 | 0.00 | 0.00 | 0.00 | 63 | 992.7 |
| 20260505200748 | 65 | 175 | 0.0 | 0.0 | 0.00 | 0.00 | 0.00 | 63 | 992.8 |
| 20260505200248 | 65 | 175 | 0.0 | 0.0 | 0.00 | 0.00 | 0.00 | 64 | 992.8 |
| 20260505195747 | 64 | 173 | 0.0 | 0.0 | 0.00 | 0.00 | 0.00 | 65 | 992.8 |
| 20260505195248 | 64 | 175 | 0.0 | 0.0 | 0.00 | 0.00 | 0.00 | 64 | 992.9 |
| 20260505194748 | 64 | 175 | 0.0 | 0.0 | 0.00 | 0.00 | 0.00 | 64 | 992.8 |
| 20260505194509 | 64 | 175 | 0.0 | 0.0 | 0.00 | 0.00 | 0.00 | 64 | 992.9 |
| 20260505193747 | 64 | 148 | 0.0 | 0.0 | 0.00 | 0.00 | 0.00 | 64 | 992.8 |
| 20260505193508 | 64 | 195 | 0.0 | 0.0 | 0.00 | 0.00 | 0.00 | 63 | 992.9 |
| 20260505192747 | 65 | 200 | 0.0 | 0.0 | 0.00 | 0.00 | 0.00 | 64 | 993.0 |
| 20260505192246 | 65 | 200 | 0.0 | 0.0 | 0.00 | 0.00 | 0.00 | 64 | 993.1 |
| 20260505191746 | 66 | 254 | 0.0 | 0.0 | 0.00 | 0.00 | 0.00 | 63 | 993.1 |
| 20260505191244 | 0 | 0.0 | 0.0 | 0.00 | 0.00 | 0.00 | 993.1 | ||
| 20260505190745 | 66 | 234 | 0.0 | 0.0 | 0.00 | 0.00 | 0.00 | 63 | 993.1 |
| 20260505190245 | 65 | 152 | 0.0 | 0.0 | 0.00 | 0.00 | 0.00 | 63 | 993.1 |
| 20260505185744 | 65 | 151 | 0.0 | 0.0 | 0.00 | 0.00 | 0.00 | 62 | 993.1 |
| 20260505185257 | 65 | 138 | 0.0 | 0.0 | 0.00 | 0.00 | 0.00 | 64 | 993.0 |
| 20260505185005 | 0 | 0.0 | 0.0 | 0.00 | 0.00 | 0.00 | 993.1 | ||
| 20260505184508 | 63 | 188 | 0.0 | 0.0 | 0.00 | 0.00 | 0.00 | 67 | 993.1 |
| 20260505183743 | 63 | 188 | 0.0 | 0.0 | 0.00 | 0.00 | 0.00 | 71 | 993.0 |
| 20260505183243 | 62 | 188 | 0.0 | 0.0 | 0.00 | 0.00 | 0.00 | 71 | 993.1 |
| 20260505182742 | 62 | 147 | 0.0 | 0.0 | 0.00 | 0.00 | 0.00 | 70 | 993.3 |
| 20260505182501 | 62 | 140 | 0.0 | 0.0 | 0.00 | 0.00 | 0.00 | 70 | 993.3 |
| 20260505181742 | 62 | 140 | 0.0 | 0.0 | 0.00 | 0.00 | 0.00 | 71 | 993.3 |
| 20260505181242 | 61 | 133 | 0.0 | 0.0 | 0.00 | 0.00 | 0.00 | 74 | 993.2 |
| 20260505181000 | 61 | 131 | 0.0 | 0.0 | 0.00 | 0.00 | 0.00 | 74 | 993.2 |
| 20260505180241 | 60 | 120 | 0.0 | 0.0 | 0.00 | 0.00 | 0.00 | 75 | 993.2 |
| 20260505175741 | 0 | 120 | 0.0 | 0.0 | 0.00 | 0.00 | 0.00 | 993.2 | |
| 20260505175458 | 0 | 121 | 0.0 | 0.0 | 0.00 | 0.00 | 0.00 | 993.2 | |
| 20260505174740 | 60 | 121 | 0.0 | 0.0 | 0.00 | 0.00 | 0.00 | 74 | 993.2 |
| 20260505174239 | 0 | 0.0 | 0.0 | 0.00 | 0.00 | 0.00 | 993.1 | ||
| 20260505173739 | 60 | 120 | 0.0 | 0.0 | 0.00 | 0.00 | 0.00 | 76 | 993.2 |
| 20260505173237 | 0 | 0.0 | 0.0 | 0.00 | 0.00 | 0.00 | 993.1 | ||
| 20260505172957 | 58 | 120 | 0.0 | 0.0 | 0.00 | 0.00 | 0.00 | 80 | 993.2 |
| 20260505172237 | 58 | 120 | 0.0 | 0.0 | 0.00 | 0.00 | 0.00 | 80 | 993.2 |
| 20260505171737 | 58 | 212 | 0.0 | 0.0 | 0.00 | 0.00 | 0.00 | 81 | 993.2 |
| 20260505171237 | 58 | 212 | 0.0 | 0.0 | 0.00 | 0.00 | 0.00 | 82 | 993.2 |
| 20260505171222 | 58 | 212 | 0.0 | 0.0 | 0.00 | 0.00 | 0.00 | 83 | 993.2 |
| 20260505170237 | 58 | 212 | 0.0 | 0.0 | 0.00 | 0.00 | 0.00 | 83 | 993.2 |
| 20260505165737 | 57 | 212 | 0.0 | 0.0 | 0.00 | 0.00 | 0.00 | 83 | 993.2 |
| 20260505165234 | 58 | 212 | 0.0 | 0.0 | 0.00 | 0.00 | 0.00 | 84 | 993.1 |
| 20260505164737 | 57 | 212 | 0.0 | 0.0 | 0.00 | 0.00 | 0.00 | 85 | 993.1 |
| 20260505164719 | 0 | 0.0 | 0.0 | 0.00 | 0.00 | 0.00 | 993.1 | ||
| 20260505163955 | 57 | 212 | 0.0 | 0.0 | 0.00 | 0.00 | 0.00 | 85 | 993.1 |
| 20260505163453 | 58 | 212 | 0.0 | 0.0 | 0.00 | 0.00 | 0.00 | 86 | 993.2 |
| 20260505162735 | 57 | 212 | 0.0 | 0.0 | 0.00 | 0.00 | 0.00 | 86 | 993.1 |
| 20260505162235 | 57 | 212 | 0.0 | 0.0 | 0.00 | 0.00 | 0.00 | 86 | 993.2 |
| 20260505161734 | 57 | 212 | 0.0 | 0.0 | 0.00 | 0.00 | 0.00 | 86 | 993.1 |
| 20260505161452 | 57 | 212 | 0.0 | 0.0 | 0.00 | 0.00 | 0.00 | 88 | 993.2 |
| 20260505160734 | 57 | 212 | 0.0 | 0.0 | 0.00 | 0.00 | 0.00 | 88 | 993.1 |
| 20260505160234 | 57 | 212 | 0.0 | 0.0 | 0.00 | 0.00 | 0.00 | 88 | 993.1 |
| 20260505153232 | 56 | 195 | 0.0 | 0.0 | 0.00 | 0.00 | 0.00 | 90 | 993.1 |
| 20260505152732 | 56 | 195 | 0.0 | 0.0 | 0.00 | 0.00 | 0.00 | 90 | 993.0 |
| 20260505152232 | 56 | 195 | 0.0 | 0.0 | 0.00 | 0.00 | 0.00 | 91 | 993.1 |
| 20260505151732 | 56 | 195 | 0.0 | 0.0 | 0.00 | 0.00 | 0.00 | 91 | 993.1 |
| 20260505151232 | 55 | 195 | 0.0 | 0.0 | 0.00 | 0.00 | 0.00 | 91 | 993.0 |
| 20260505150730 | 55 | 195 | 0.0 | 0.0 | 0.00 | 0.00 | 0.00 | 91 | 993.0 |
| 20260505150230 | 56 | 195 | 0.0 | 0.0 | 0.00 | 0.00 | 0.00 | 91 | 992.9 |
| 20260505140241 | 55 | 196 | 0.0 | 0.0 | 0.00 | 0.00 | 0.00 | 91 | 992.6 |
| 20260505130213 | 0 | 0.0 | 0.0 | 0.00 | 0.00 | 0.00 | 992.1 | ||
| 20260505124709 | 0 | 0.0 | 0.0 | 0.00 | 0.00 | 0.00 | 992.1 | ||
| 20260505124208 | 0 | 0.0 | 0.0 | 0.00 | 0.00 | 0.00 | 992.1 | ||
| 20260505123707 | 0 | 0.0 | 0.0 | 0.00 | 0.00 | 0.00 | 992.2 | ||
| 20260505123205 | 0 | 0.0 | 0.0 | 0.00 | 0.00 | 0.00 | 992.1 | ||
| 20260505122705 | 0 | 0.0 | 0.0 | 0.00 | 0.00 | 0.00 | 992.2 | ||
| 20260505122203 | 0 | 0.0 | 0.0 | 0.00 | 0.00 | 0.00 | 992.1 | ||
| 20260505121702 | 0 | 0.0 | 0.0 | 0.00 | 0.00 | 0.00 | 992.1 | ||
| 20260505121201 | 0 | 0.0 | 0.0 | 0.00 | 0.00 | 0.00 | 992.1 | ||
| 20260505120918 | 0 | 0.0 | 0.0 | 0.00 | 0.00 | 0.00 | 992.1 | ||
| 20260505120159 | 0 | 0.0 | 0.0 | 0.00 | 0.00 | 0.00 | 992.1 | ||
| 20260505115657 | 0 | 0.0 | 0.0 | 0.00 | 0.00 | 0.00 | 992.1 | ||
| 20260505115157 | 0 | 0.0 | 0.0 | 0.00 | 0.00 | 0.00 | 992.0 | ||
| 20260505114655 | 0 | 0.0 | 0.0 | 0.00 | 0.00 | 0.00 | 992.1 | ||
| 20260505114156 | 55 | 196 | 0.0 | 0.0 | 0.00 | 0.00 | 0.00 | 91 | 992.0 |
| 20260505113654 | 0 | 0.0 | 0.0 | 0.00 | 0.00 | 0.00 | 992.1 | ||
| 20260505113152 | 0 | 0.0 | 0.0 | 0.00 | 0.00 | 0.00 | 992.1 | ||
| 20260505112653 | 55 | 196 | 0.0 | 0.0 | 0.00 | 0.00 | 0.00 | 91 | 992.1 |
| 20260505112153 | 55 | 196 | 0.0 | 0.0 | 0.00 | 0.00 | 0.00 | 91 | 992.1 |
| 20260505111653 | 55 | 196 | 0.0 | 0.0 | 0.00 | 0.00 | 0.00 | 91 | 992.2 |
| 20260505111419 | 55 | 196 | 0.0 | 0.0 | 0.00 | 0.00 | 0.00 | 91 | 992.2 |
| 20260505110650 | 0 | 0.0 | 0.0 | 0.00 | 0.00 | 0.00 | 992.1 | ||
| 20260505110151 | 55 | 195 | 0.0 | 0.0 | 0.00 | 0.00 | 0.00 | 91 | 992.1 |
| 20260505102147 | 55 | 196 | 0.0 | 0.0 | 0.00 | 0.00 | 0.00 | 91 | 992.0 |
| 20260505101649 | 55 | 196 | 0.0 | 0.0 | 0.00 | 0.00 | 0.00 | 91 | 992.0 |
| 20260505101147 | 55 | 196 | 0.0 | 0.0 | 0.00 | 0.00 | 0.00 | 91 | 992.0 |
| 20260505100647 | 55 | 196 | 0.0 | 0.0 | 0.00 | 0.00 | 0.00 | 90 | 992.0 |
| 20260505100147 | 55 | 196 | 0.0 | 0.0 | 0.00 | 0.00 | 0.00 | 90 | 992.0 |
| 20260505095646 | 55 | 195 | 0.0 | 0.0 | 0.00 | 0.00 | 0.00 | 90 | 992.0 |
| 20260505095146 | 55 | 196 | 0.0 | 0.0 | 0.00 | 0.00 | 0.00 | 90 | 992.0 |
| 20260505094646 | 55 | 196 | 0.0 | 0.0 | 0.00 | 0.00 | 0.00 | 90 | 992.0 |
| 20260505094147 | 55 | 195 | 0.0 | 0.0 | 0.00 | 0.00 | 0.00 | 90 | 992.0 |
| 20260505093646 | 55 | 196 | 0.0 | 0.0 | 0.00 | 0.00 | 0.00 | 90 | 991.9 |
| 20260505093144 | 0 | 0.0 | 0.0 | 0.00 | 0.00 | 0.00 | 991.9 | ||
| 20260505092642 | 0 | 0.0 | 0.0 | 0.00 | 0.00 | 0.00 | 992.0 | ||
| 20260505092156 | 55 | 196 | 0.0 | 0.0 | 0.00 | 0.00 | 0.00 | 90 | 992.0 |
| 20260505091643 | 55 | 196 | 0.0 | 0.0 | 0.00 | 0.00 | 0.00 | 90 | 992.0 |